Toms River, NJ

11:17 PM EDT on October 18, 2019 (GMT -0400)
Miller

Weather History for KMJX - August, 2019

Change the Weather History Date:

Saturday, August 17, 2019

  Actual Average Record
Temperature  
Mean Temperature 83 °F -  
Max Temperature 89 °F 84 °F 95 °F (2015)
Min Temperature 77 °F 62 °F 43 °F (1979)
Cooling Degree Days 18    
Growing Degree Days 33 (Base 50)    
Moisture  
Dew Point 76 °F    
Average Humidity 75    
Maximum Humidity 100    
Minimum Humidity 62    
Precipitation  
Precipitation 0.00 in - - ()
Sea Level Pressure  
Sea Level Pressure 30.01 in    
Wind  
Wind Speed 2 mph (ENE)    
Max Wind Speed 9 mph    
Max Gust Speed -    
Visibility 6 miles    
Events Fog , Rain    
Averages and records for this station are not official NWS values.
T = Trace of Precipitation, MM = Missing Value Source: NWS Daily Summary

Daily Weather History Graph

Daily Weather History Graph

Search for Another Location

Airport or City:

Astronomy

Aug. 17, 2019 Rise Set
Actual Time 6:10 AM EDT 7:51 PM EDT
Civil Twilight 5:41 AM EDT 8:20 PM EDT
Nautical Twilight 5:06 AM EDT 8:54 PM EDT
Astronomical Twilight 4:29 AM EDT 9:31 PM EDT
Moon 9:17 PM EDT (8/17) 7:56 AM EDT (8/17)
Length of Visible Light 14h 38m
Length of Day
13h 40m
Waning Gibbous, 96% of the Moon is Illuminated
Aug 17
Waning Gibbous
Aug 23
Last Quarter
Aug 30
New
Sep 5
First Quarter
Sep 14
Full

Hourly Weather History & Observations

Time (EDT) Temp. Heat Index Dew Point Humidity Pressure Visibility Wind Dir Wind Speed Gust Speed Precip Events Conditions
12:37 AM - - - N/A% 30.03 in 10.0 mi Calm Calm - N/A   Mostly Cloudy
12:56 AM - - - N/A% 30.03 in 5.0 mi Calm Calm - N/A   Haze
1:01 AM - - - N/A% 30.03 in 1.8 mi Calm Calm - N/A   Overcast
1:03 AM - - - N/A% 30.03 in 1.0 mi Calm Calm - N/A   Overcast
1:12 AM - - - N/A% 30.03 in 0.8 mi Calm Calm - N/A   Overcast
1:14 AM - - - N/A% 30.03 in 1.2 mi Calm Calm - N/A   Overcast
1:19 AM - - - N/A% 30.03 in 4.0 mi Calm Calm - N/A   Haze
1:39 AM - - - N/A% 30.02 in 4.0 mi Calm Calm - N/A   Haze
1:56 AM - - - N/A% 30.02 in 5.0 mi Calm Calm - N/A   Haze
2:56 AM - - - N/A% 30.02 in 1.0 mi Calm Calm - N/A   Overcast
3:11 AM - - - N/A% 30.02 in 2.0 mi Calm Calm - N/A   Overcast
3:19 AM - - - N/A% 30.02 in 5.0 mi Calm Calm - N/A   Haze
3:34 AM - - - N/A% 30.02 in 6.0 mi Calm Calm - N/A   Haze
3:45 AM - - - N/A% 30.02 in 8.0 mi Calm Calm - N/A   Overcast
3:56 AM - - - N/A% 30.02 in 7.0 mi NE 3.5 mph - N/A   Overcast
4:54 AM - - - N/A% 30.01 in 5.0 mi Calm Calm - N/A   Haze
4:56 AM - - - N/A% 30.00 in 5.0 mi North 3.5 mph - N/A   Haze
5:15 AM - - - N/A% 30.01 in 2.0 mi North 3.5 mph - N/A   Overcast
5:44 AM - - - N/A% 30.02 in 1.0 mi NNE 3.5 mph - N/A   Overcast
5:49 AM - - - N/A% 30.02 in 0.5 mi NNE 3.5 mph - N/A Fog Fog
5:56 AM - - - N/A% 30.02 in 0.5 mi NNE 3.5 mph - N/A Fog Fog
6:05 AM - - - N/A% 30.02 in 0.2 mi North 3.5 mph - N/A Fog Fog
6:24 AM - - - N/A% 30.01 in 0.8 mi North 3.5 mph - N/A   Overcast
6:29 AM - - - N/A% 30.01 in 1.2 mi North 3.5 mph - N/A   Overcast
6:33 AM - - - N/A% 30.01 in 3.0 mi North 3.5 mph - N/A   Overcast
6:50 AM - - - N/A% 30.01 in 1.8 mi North 4.6 mph - N/A   Overcast
6:51 AM - - - N/A% 30.01 in 1.8 mi NNW 4.6 mph - N/A   Overcast
7:12 AM - - - N/A% 30.01 in 2.5 mi NNE 4.6 mph - N/A   Mostly Cloudy
7:17 AM - - - N/A% 30.01 in 5.0 mi NNE 4.6 mph - N/A   Haze
7:56 AM - - - N/A% 30.02 in 8.0 mi NE 5.8 mph - N/A   Mostly Cloudy
8:15 AM - - - N/A% 30.02 in 10.0 mi ENE 3.5 mph - N/A   Overcast
8:39 AM 77.0 °F - - N/A% 30.02 in 10.0 mi Calm Calm - N/A   Overcast
8:56 AM 79.0 °F - - N/A% 30.02 in 10.0 mi Variable 4.6 mph - N/A   Mostly Cloudy
9:22 AM 80.6 °F - - N/A% 30.02 in 10.0 mi East 5.8 mph - N/A   Mostly Cloudy
9:54 AM 80.6 °F 89.3 °F 80.6 °F 100% 30.02 in 10.0 mi ENE 3.5 mph - N/A   Mostly Cloudy
9:56 AM 81.0 °F 89.9 °F 80.1 °F 97% 30.02 in 10.0 mi East 3.5 mph - N/A   Mostly Cloudy
10:43 AM 84.2 °F 92.3 °F 75.2 °F 74% 30.03 in 10.0 mi East 4.6 mph - N/A   Mostly Cloudy
10:56 AM 82.9 °F 89.4 °F 73.9 °F 74% 30.03 in 10.0 mi Variable 4.6 mph - N/A   Partly Cloudy
11:56 AM 84.0 °F 91.2 °F 73.9 °F 72% 30.03 in 10.0 mi NE 5.8 mph - N/A   Mostly Cloudy
12:11 PM 87.8 °F 95.6 °F 73.4 °F 62% 30.02 in 10.0 mi Calm Calm - N/A   Scattered Clouds
12:56 PM 87.1 °F 96.3 °F 75.0 °F 67% 30.01 in 10.0 mi NNW 6.9 mph - N/A   Mostly Cloudy
1:56 PM 89.1 °F 100.2 °F 75.9 °F 65% 30.01 in 10.0 mi SE 8.1 mph - N/A   Clear
2:40 PM 87.8 °F 97.6 °F 75.2 °F 66% 30.00 in 10.0 mi Variable 4.6 mph - N/A   Overcast
2:47 PM 87.8 °F 97.6 °F 75.2 °F 66% 30.00 in 10.0 mi ESE 9.2 mph - N/A   Overcast
2:54 PM 84.2 °F 92.3 °F 75.2 °F 74% 30.00 in 10.0 mi ESE 8.1 mph - N/A   Overcast
2:56 PM 84.9 °F 94.1 °F 75.9 °F 74% 29.99 in 10.0 mi East 9.2 mph - N/A   Overcast
3:22 PM 84.2 °F 92.3 °F 75.2 °F 74% 29.99 in 10.0 mi SE 8.1 mph - 0.00 in Rain Light Rain
3:56 PM 86.0 °F 95.1 °F 75.0 °F 70% 29.98 in 10.0 mi East 6.9 mph - 0.00 in   Clear
4:56 PM 84.0 °F 91.2 °F 73.9 °F 72% 29.97 in 10.0 mi SE 6.9 mph - N/A   Partly Cloudy
5:56 PM 82.9 °F 90.2 °F 75.0 °F 77% 29.97 in 10.0 mi SE 8.1 mph - N/A   Clear
6:56 PM 81.0 °F 89.9 °F 80.1 °F 97% 29.96 in 10.0 mi SSE 8.1 mph - N/A   Clear
7:56 PM 78.1 °F - - N/A% 29.97 in 10.0 mi South 4.6 mph - N/A   Clear
8:56 PM 77.0 °F - - N/A% 29.99 in 10.0 mi SSE 3.5 mph - N/A   Clear
9:56 PM - - - N/A% 30.00 in 10.0 mi South 3.5 mph - N/A   Clear
10:56 PM - - - N/A% 29.99 in 10.0 mi Calm Calm - N/A   Clear
11:56 PM - - - N/A% 29.99 in 8.0 mi Calm Calm - N/A   Clear